EW3600 Weather Reports


time (UTC)temp
C
wind
direction
speed
KPH
gust
KPH
rain 1hr
cm
rain 24hr
cm
rain mn
cm
humidity
%
barometer
mb
20260505004520 19 262 19.3 38.6 0.00 0.00 0.00 25 998.5
20260505003021 19 312 12.9 22.5 0.00 0.00 0.00 24 998.5
20260505001605 20 334 14.5 24.1 0.00 0.00 0.00 27 998.3
20260504234541 20 49 14.5 27.4 0.00 0.00 0.00 28 998.2
20260504233052 19 25 27.4 43.5 0.00 0.00 0.00 29 998.3
20260504231523 19 26 16.1 25.7 0.00 0.00 0.00 27 998.2
20260504230020 20 4 14.5 27.4 0.00 0.00 0.00 24 998.1
20260504224507 19 356 20.9 48.3 0.00 0.00 0.00 26 998.4
20260504223006 19 346 29.0 37.0 0.00 0.00 0.00 29 998.5
20260504221505 21 345 0.0 9.7 0.00 0.00 0.00 21 998.6
20260504220003 22 128 6.4 12.9 0.00 0.00 0.00 21 998.7
20260504214558 21 191 0.0 9.7 0.00 0.00 0.00 23 999.0
20260504213055 20 59 1.6 20.9 0.00 0.00 0.00 22 999.2
20260504211552 18 15 20.9 37.0 0.00 0.00 0.00 27 999.6
20260504210105 20 28 6.4 14.5 0.00 0.00 0.00 24 999.7
20260504204533 20 305 0.0 14.5 0.00 0.00 0.00 24 999.7
20260504203043 20 36 3.2 9.7 0.00 0.00 0.00 24 999.8
20260504201508 20 159 1.6 8.0 0.00 0.00 0.00 23 999.9
20260504200006 20 207 11.3 19.3 0.00 0.00 0.00 25 1000.2
20260504194546 20 130 17.7 29.0 0.00 0.00 0.00 28 1000.3
20260504193046 20 153 19.3 37.0 0.00 0.00 0.00 27 1000.6
20260504191524 20 160 19.3 32.2 0.00 0.00 0.00 29 1000.8
20260504190018 20 186 16.1 35.4 0.00 0.00 0.00 30 1001.0
20260504184557 19 151 17.7 33.8 0.00 0.00 0.00 31 1001.4
20260504183055 18 173 19.3 32.2 0.00 0.00 0.00 31 1001.7
20260504181540 18 210 19.3 33.8 0.00 0.00 0.00 31 1001.9
20260504180032 18 214 24.1 35.4 0.00 0.00 0.00 32 1002.2
20260504174511 17 168 22.5 32.2 0.00 0.00 0.00 32 1002.3
20260504173009 17 177 22.5 33.8 0.00 0.00 0.00 33 1002.4
20260504171550 17 181 22.5 38.6 0.00 0.00 0.00 35 1002.6
20260504081537 -17 0.0 0.0 0.00 0.00 0.00 1003.0
20260504050113 9 84 0.0 1.6 0.00 0.00 0.00 51 1004.6
20260504044554 10 84 0.0 4.8 0.00 0.00 0.00 50 1004.7
20260504043036 10 76 0.0 0.0 0.00 0.00 0.00 46 1004.6
20260504041535 10 76 0.0 1.6 0.00 0.00 0.00 48 1004.6
20260504040018 10 88 0.0 1.6 0.00 0.00 0.00 48 1004.6
20260504034518 10 79 0.0 3.2 0.00 0.00 0.00 49 1004.5
20260504033103 11 103 0.0 1.6 0.00 0.00 0.00 47 1004.4
20260504031604 12 103 0.0 1.6 0.00 0.00 0.00 47 1004.4
20260504030044 12 103 0.0 3.2 0.00 0.00 0.00 51 1004.4
20260504024541 12 213 0.0 6.4 0.00 0.00 0.00 45 1004.4
20260504023024 13 236 6.4 12.9 0.00 0.00 0.00 44 1004.4
20260504021522 14 234 9.7 12.9 0.00 0.00 0.00 46 1004.4
20260504020003 16 191 6.4 16.1 0.00 0.00 0.00 37 1004.4
20260504014502 17 179 8.0 9.7 0.00 0.00 0.00 30 1004.5
20260504013046 17 169 3.2 16.1 0.00 0.00 0.00 33 1004.8
20260504011541 17 137 11.3 19.3 0.00 0.00 0.00 29 1005.1
20260504010022 17 193 24.1 40.2 0.00 0.00 0.00 30 1005.4